This demonstration page uses our WeatherBlox Daily Observations layout. Learn more.

Left ArrowRight Arrow

Hourly Observations for May 6, 2017

Temp ( °F °C ) Dew Point ( °F °C ) Humidity (%) Winds ( mph kmh ) Pressure ( in mb ) Visibility ( mi km ) Precip ( " mm )
12:52 am 00:52 Clear 51 10.6 44 6.7 77 77 SW 8 13 29.90 1013 10 16 0.00 0.00
1:52 am 01:52 Clear 52 11.1 43 6.1 72 72 WSW 7 11 29.89 1012 10 16 0.00 0.00
2:52 am 02:52 Clear 51 10.6 43 6.1 74 74 WSW 7 11 29.87 1011 10 16 0.00 0.00
3:52 am 03:52 Clear 53 11.7 43 6.1 69 69 WSW 9 15 29.87 1011 10 16 0.00 0.00
4:52 am 04:52 Clear 56 13.3 42 5.6 60 60 W 13 20 29.86 1011 10 16 0.00 0.00
5:52 am 05:52 Clear 54 12.2 42 5.6 64 64 W 10 17 29.88 1012 10 16 0.00 0.00
6:52 am 06:52 Sunny 54 12.2 43 6.1 67 67 WSW 8 13 29.89 1012 10 16 0.00 0.00
7:52 am 07:52 Sunny 59 15 44 6.7 58 58 W 12 19 29.91 1013 10 16 0.00 0.00
8:52 am 08:52 Sunny 63 17.2 45 7.2 52 52 W 12 19 29.91 1013 10 16 0.00 0.00
9:52 am 09:52 Sunny 68 20 47 8.3 47 47 W 13 20 29.91 1013 10 16 0.00 0.00
10:52 am 10:52 Sunny 71 21.7 48 8.9 44 44 W 17 28 29.91 1013 10 16 0.00 0.00
11:52 am 11:52 Sunny 74 23.3 49 9.4 41 41 WNW 15 24 29.90 1013 10 16 0.00 0.00
12:52 pm 12:52 Sunny 74 23.3 51 10.6 45 45 WNW 14 22 29.89 1012 10 16 0.00 0.00
1:52 pm 13:52 Sunny 78 25.6 54 12.2 43 43 WNW 12 19 29.87 1011 10 16 0.00 0.00
2:52 pm 14:52 Mostly Sunny 78 25.6 54 12.2 43 43 NNW 15 24 29.85 1011 10 16 0.00 0.00
3:52 pm 15:52 Sunny 78 25.6 53 11.7 42 42 NNW 16 26 29.84 1010 10 16 0.00 0.00
4:52 pm 16:52 Sunny 78 25.6 53 11.7 42 42 NW 15 24 29.83 1010 10 16 0.00 0.00
5:52 pm 17:52 Sunny 77 25 51 10.6 40 40 NNW 14 22 29.84 1011 10 16 0.00 0.00
6:52 pm 18:52 Sunny 75 23.9 52 11.1 45 45 N 9 15 29.84 1011 10 16 0.00 0.00
7:52 pm 19:52 Sunny 70 21.1 47 8.3 44 44 N 7 11 29.85 1011 10 16 0.00 0.00
8:52 pm 20:52 Clear 66 18.9 46 7.8 49 49 NE 8 13 29.88 1012 10 16 0.00 0.00
9:52 pm 21:52 Clear 65 18.3 45 7.2 49 49 NE 3 6 29.90 1012 10 16 0.00 0.00
10:52 pm 22:52 Clear 63 17.2 44 6.7 50 50 E 6 9 29.91 1013 10 16 0.00 0.00
11:52 pm 23:52 Clear 58 14.4 43 6.1 58 58 E 6 9 29.92 1013 10 16 0.00 0.00

Powered by AerisWeather